When you browse on this site, cookies collect data to enhance your experience and personalize the content and advertising you see.
Visit our Privacy Policy to learn more. By continuing to use the site, you agree to this use of cookies and data.
  • In Denmark
  • List of Countries
  • For 7 days
  • Water Temperature
  • Weather Map
  • Weather Widgets
  • user-avatar
    Login

    Hourly Weather Yurkovo

    Today, 5 June, Friday

    Time Temperature Precipitation Wind Pressure Humidity
    00:00 +10°C° 0 mm 4 mps 741 mmHg 94%
    01:00 +10°C° 0 mm 4 mps 741 mmHg 95%
    02:00 +9°C° 0 mm 3 mps 741 mmHg 95%
    03:00 +10°C° 0 mm 3 mps 741 mmHg 94%
    04:00 +10°C° 0 mm 4 mps 741 mmHg 94%
    05:00 +11°C° 0 mm 4 mps 741 mmHg 93%
    06:00 +12°C° 0.2 mm 5 mps 741 mmHg 89%
    07:00 +14°C° 0.2 mm 5 mps 742 mmHg 86%
    08:00 +15°C° 0.2 mm 6 mps 742 mmHg 82%
    09:00 +15°C° 1.4 mm 7 mps 741 mmHg 83%
    10:00 +15°C° 1.4 mm 7 mps 741 mmHg 84%
    11:00 +15°C° 1.4 mm 8 mps 741 mmHg 86%
    12:00 +15°C° 2.2 mm 7 mps 741 mmHg 88%
    13:00 +14°C° 2.2 mm 7 mps 741 mmHg 90%
    14:00 +13°C° 2.2 mm 6 mps 741 mmHg 92%
    15:00 +14°C° 0.4 mm 6 mps 741 mmHg 90%
    16:00 +15°C° 0.4 mm 5 mps 741 mmHg 88%
    17:00 +16°C° 0.4 mm 5 mps 742 mmHg 86%
    18:00 +15°C° 0.7 mm 4 mps 742 mmHg 88%
    19:00 +14°C° 0.7 mm 3 mps 742 mmHg 91%
    20:00 +13°C° 0.7 mm 3 mps 742 mmHg 94%
    21:00 +12°C° 0 mm 3 mps 742 mmHg 95%
    22:00 +12°C° 0 mm 3 mps 742 mmHg 96%
    23:00 +12°C° 0 mm 2 mps 742 mmHg 97%

    Tomorrow, 6 June, Saturday

    Time Temperature Precipitation Wind Pressure Humidity
    00:00 +12°C° 0 mm 2 mps 743 mmHg 97%
    01:00 +12°C° 0 mm 2 mps 743 mmHg 97%
    02:00 +12°C° 0 mm 2 mps 743 mmHg 97%
    03:00 +13°C° 0 mm 2 mps 743 mmHg 97%
    04:00 +13°C° 0 mm 2 mps 743 mmHg 97%
    05:00 +14°C° 0 mm 2 mps 744 mmHg 97%
    06:00 +16°C° 0 mm 2 mps 744 mmHg 94%
    07:00 +17°C° 0 mm 3 mps 744 mmHg 91%
    08:00 +19°C° 0 mm 3 mps 744 mmHg 87%
    09:00 +20°C° 0.1 mm 3 mps 745 mmHg 84%
    10:00 +22°C° 0.1 mm 3 mps 745 mmHg 80%
    11:00 +23°C° 0.1 mm 4 mps 745 mmHg 76%
    12:00 +23°C° 0.2 mm 4 mps 745 mmHg 75%
    13:00 +25°C° 0.2 mm 4 mps 745 mmHg 74%
    14:00 +26°C° 0.2 mm 4 mps 745 mmHg 73%
    15:00 +25°C° 0.6 mm 4 mps 745 mmHg 77%
    16:00 +23°C° 0.6 mm 4 mps 745 mmHg 81%
    17:00 +24°C° 0.6 mm 3 mps 745 mmHg 85%
    18:00 +22°C° 0.1 mm 3 mps 745 mmHg 87%
    19:00 +20°C° 0.1 mm 3 mps 745 mmHg 90%
    20:00 +19°C° 0.1 mm 3 mps 745 mmHg 92%
    21:00 +19°C° 0 mm 3 mps 746 mmHg 93%
    22:00 +18°C° 0 mm 3 mps 746 mmHg 93%
    23:00 +18°C° 0 mm 2 mps 746 mmHg 94%

    Day after tomorrow, 7 June, Sunday

    Time Temperature Precipitation Wind Pressure Humidity
    00:00 +18°C° 0 mm 2 mps 746 mmHg 94%
    01:00 +18°C° 0 mm 2 mps 747 mmHg 95%
    02:00 +18°C° 0 mm 2 mps 747 mmHg 95%
    03:00 +18°C° 0 mm 2 mps 747 mmHg 95%
    04:00 +19°C° 0 mm 1 mps 747 mmHg 95%
    05:00 +19°C° 0 mm 1 mps 747 mmHg 94%
    06:00 +20°C° 0 mm 1 mps 748 mmHg 90%
    07:00 +22°C° 0 mm 1 mps 748 mmHg 87%
    08:00 +23°C° 0 mm 1 mps 748 mmHg 83%
    09:00 +24°C° 1.1 mm 1 mps 748 mmHg 79%
    10:00 +25°C° 1.1 mm 2 mps 748 mmHg 74%
    11:00 +26°C° 1.1 mm 2 mps 748 mmHg 70%
    12:00 +27°C° 1.8 mm 2 mps 748 mmHg 70%
    13:00 +27°C° 1.8 mm 2 mps 748 mmHg 69%
    14:00 +27°C° 1.8 mm 1 mps 748 mmHg 68%
    15:00 +27°C° 1.3 mm 1 mps 748 mmHg 71%
    16:00 +26°C° 1.3 mm 1 mps 748 mmHg 75%
    17:00 +26°C° 1.3 mm 1 mps 748 mmHg 78%
    18:00 +25°C° 0.1 mm 1 mps 748 mmHg 82%
    19:00 +23°C° 0.1 mm 1 mps 748 mmHg 85%
    20:00 +22°C° 0.1 mm 1 mps 748 mmHg 89%
    21:00 +21°C° 0 mm 1 mps 748 mmHg 90%
    22:00 +19°C° 0 mm 2 mps 748 mmHg 91%
    23:00 +19°C° 0 mm 2 mps 748 mmHg 92%

    8 June, Monday

    Time Temperature Precipitation Wind Pressure Humidity
    00:00 +19°C° 0 mm 2 mps 748 mmHg 93%
    01:00 +18°C° 0 mm 2 mps 749 mmHg 93%
    02:00 +18°C° 0 mm 2 mps 749 mmHg 94%
    03:00 +18°C° 0 mm 2 mps 749 mmHg 94%
    04:00 +20°C° 0 mm 1 mps 749 mmHg 93%
    05:00 +20°C° 0 mm 1 mps 749 mmHg 93%
    06:00 +22°C° 0 mm 1 mps 749 mmHg 89%
    07:00 +23°C° 0 mm 1 mps 749 mmHg 85%
    08:00 +24°C° 0 mm 1 mps 749 mmHg 81%
    09:00 +25°C° 0.4 mm 1 mps 749 mmHg 76%
    10:00 +26°C° 0.4 mm 1 mps 749 mmHg 72%
    11:00 +27°C° 0.4 mm 1 mps 748 mmHg 67%
    12:00 +28°C° 0.1 mm 1 mps 748 mmHg 66%
    13:00 +28°C° 0.1 mm 2 mps 748 mmHg 65%
    14:00 +28°C° 0.1 mm 2 mps 748 mmHg 63%
    15:00 +28°C° 0.5 mm 2 mps 748 mmHg 69%
    16:00 +27°C° 0.5 mm 3 mps 748 mmHg 74%
    17:00 +26°C° 0.5 mm 3 mps 748 mmHg 80%
    18:00 +25°C° 0.4 mm 3 mps 748 mmHg 84%
    19:00 +22°C° 0.4 mm 3 mps 748 mmHg 88%
    20:00 +21°C° 0.4 mm 4 mps 748 mmHg 92%
    21:00 +20°C° 0 mm 3 mps 748 mmHg 92%
    22:00 +19°C° 0 mm 3 mps 748 mmHg 93%
    23:00 +19°C° 0 mm 3 mps 748 mmHg 94%

    9 June, Tuesday

    Time Temperature Precipitation Wind Pressure Humidity
    00:00 +18°C° 0 mm 3 mps 748 mmHg 94%
    01:00 +18°C° 0 mm 3 mps 748 mmHg 94%
    02:00 +17°C° 0 mm 3 mps 748 mmHg 95%
    03:00 +17°C° 0 mm 3 mps 749 mmHg 94%
    04:00 +18°C° 0 mm 3 mps 749 mmHg 94%
    05:00 +18°C° 0 mm 3 mps 749 mmHg 94%
    06:00 +19°C° 0 mm 3 mps 749 mmHg 90%
    07:00 +21°C° 0 mm 3 mps 749 mmHg 87%
    08:00 +22°C° 0 mm 4 mps 749 mmHg 83%
    09:00 +23°C° 0 mm 4 mps 749 mmHg 80%
    10:00 +23°C° 0 mm 4 mps 749 mmHg 76%
    11:00 +25°C° 0 mm 5 mps 749 mmHg 73%
    12:00 +25°C° 0.1 mm 5 mps 749 mmHg 72%
    13:00 +26°C° 0.1 mm 5 mps 749 mmHg 72%
    14:00 +26°C° 0.1 mm 5 mps 749 mmHg 71%
    15:00 +25°C° 0.3 mm 4 mps 749 mmHg 74%
    16:00 +25°C° 0.3 mm 4 mps 749 mmHg 78%
    17:00 +23°C° 0.3 mm 4 mps 748 mmHg 81%
    18:00 +22°C° 0.1 mm 3 mps 748 mmHg 84%
    19:00 +20°C° 0.1 mm 3 mps 749 mmHg 88%
    20:00 +19°C° 0.1 mm 3 mps 749 mmHg 91%
    21:00 +18°C° 0 mm 3 mps 749 mmHg 92%
    22:00 +18°C° 0 mm 3 mps 749 mmHg 94%
    23:00 +17°C° 0 mm 3 mps 749 mmHg 95%

    10 June, Wednesday

    Time Temperature Precipitation Wind Pressure Humidity
    00:00 +16°C° 0 mm 3 mps 749 mmHg 95%
    01:00 +16°C° 0 mm 3 mps 748 mmHg 96%
    02:00 +14°C° 0 mm 3 mps 748 mmHg 96%
    03:00 +16°C° 0 mm 3 mps 748 mmHg 96%
    04:00 +15°C° 0 mm 4 mps 748 mmHg 96%
    05:00 +17°C° 0 mm 4 mps 748 mmHg 96%
    06:00 +18°C° 0 mm 4 mps 748 mmHg 94%
    07:00 +19°C° 0 mm 4 mps 748 mmHg 91%
    08:00 +20°C° 0 mm 3 mps 748 mmHg 89%
    09:00 +21°C° 0 mm 4 mps 748 mmHg 84%
    10:00 +23°C° 0 mm 4 mps 749 mmHg 79%
    11:00 +25°C° 0 mm 4 mps 749 mmHg 74%
    12:00 +25°C° 0.1 mm 4 mps 748 mmHg 73%
    13:00 +26°C° 0.1 mm 4 mps 748 mmHg 72%
    14:00 +26°C° 0.1 mm 4 mps 748 mmHg 72%
    15:00 +25°C° 0.3 mm 4 mps 748 mmHg 75%
    16:00 +25°C° 0.3 mm 4 mps 747 mmHg 78%
    17:00 +24°C° 0.3 mm 3 mps 747 mmHg 82%
    18:00 +22°C° 0.4 mm 3 mps 747 mmHg 85%
    19:00 +21°C° 0.4 mm 2 mps 747 mmHg 88%
    20:00 +20°C° 0.4 mm 2 mps 747 mmHg 91%
    21:00 +20°C° 0.1 mm 1 mps 747 mmHg 91%
    22:00 +20°C° 0.1 mm 1 mps 747 mmHg 92%
    23:00 +19°C° 0.1 mm 1 mps 747 mmHg 92%
    Show more